DMSP 5D-2 F13 DEB, 42327

Orbit data source: Space-Track

DMSP 5D-2 F13 DEB, 42327 is space debris in SSO originally from a launch on Fri, 24 Mar 1995 UTC launched from the Air Force Western Test Range (AFWTR). Debris objects in space refer to the collection of defunct objects orbiting the Earth. Examples of debris include non-operational satellites, rocket bodies, and fragments generated from explosions, collisions, or faulty payload assembly.

Loading next visibility...
Identifier
42327, 1995-015JV
Orbit
SSO
Country
Flag of USUS
Related business
Manufacturer
Unknown
Mission
Spacecraft
Bus & Motor
Unknown
Mass
Unknown
Launch date (UTC)
1995-03-24 (30 years ago)
Launch vehicle
Unknown
Launch site
Air Force Western Test Range (AFWTR)
Object type
Payload
Rocket body
Debris
Shape & HBR
Unknown
Radar Cross Section
Small (<0.1 m²)

Expand to show TLE details & history
Last TLE update: 1 day ago

TLE from 1 day ago
0 DMSP 5D-2 F13 DEB
1 42327U 95015JV  25257.30392708  .00003125  00000-0  10578-2 0  9995
2 42327  98.6944 288.8651 0007308 111.9279 248.2685 14.37520034514022
Epoch: 2025-09-14T07:17Z
TLE epoch observation values (Epoch: 2025-09-14T07:17:39.299Z)
Latitude
-0°
Longitude
-174.07351°
Altitude
771.58 km
Speed
7.467 km/s
True Right ascension
19h 15m 27s
True Declination
0° 00' 00"
Sunlit
Object was in daylight at epoch
Visualization orbit readout
Latitude
Unknown
Longitude
Unknown
Altitude
Unknown
Speed
Unknown
Apparent Right ascension
Unknown
Apparent Declination
Unknown
Sunlit
N/A
Visualization observer readout
Local Sidereal Time
07:26:00
Azimuth
Unknown
Elevation
Unknown
Doppler factor
Unknown
Orbital elements
Apogee altitude
769.058 km
Perigee altitude
758.619 km
Semi-major axis
7,141.976 km
Eccentricity
0.00073
Inclination
98.6944°
RAAN
288.8651°
Arg. of periapsis
111.9279°
True anomaly
248.19073°
Mean anomaly
248.2685°
Eccentric anomaly
248.22961°
Mean motion
3.59597 °/min
Orbital period
100.11 mins
BSTAR
0.0010578
Loading maneuver chart data...
Computing Atmospheric mass density...

Documentation

Showing up to 5 results
|